User: anonymous   Login
Location: Newark
(34.9500°N, 139.9667°E)
Time: 01:40:02
(UTC+00:00)
Language:

Courier 1B Rocket - Orbit

View from above orbital plane
View from above orbital plane
View from above satellite
View from above satellite

Ground track
Ground track

The orbit data is extracted from the following two-line orbital elements,

1    59U 60013B   19346.54204294 +.00000072 +00000-0 -22500-4 0  9990
2    59 028.2478 103.4550 0189073 148.9893 212.1967 13.52972207921137
Epoch (UTC): 12 December 2019 13:00:32
Eccentricity: 0.0189073
inclination: 28.2478°
perigee height: 920 km
apogee height: 1202 km
right ascension of ascending node: 103.4550°
argument of perigee: 148.9893°
revolutions per day: 13.52972207
mean anomaly at epoch: 212.1967°
orbit number at epoch: 92113

The dashed part of the orbit path shows where the satellite is in the earth's shadow,  

DLR